FW5743 Weather Reports


time (UTC)temp
C
wind
direction
speed
KPH
gust
KPH
rain 1hr
cm
rain 24hr
cm
rain mn
cm
humidity
%
barometer
mb
20260504001516 11 222 3.2 11.3 0.00 0.00 0.00 76 1008.3
20260504001015 11 219 4.8 11.3 0.00 0.00 0.00 76 1008.4
20260504000515 11 216 3.2 8.0 0.00 0.00 0.00 77 1008.4
20260504000015 11 222 3.2 9.7 0.00 0.00 0.00 77 1008.4
20260503235515 11 229 3.2 9.7 0.00 0.00 0.00 77 1008.4
20260503235035 11 254 3.2 9.7 0.00 0.00 0.00 77 1008.5
20260503234515 11 235 3.2 8.0 0.00 0.00 0.00 77 1008.5
20260503234015 11 233 3.2 12.9 0.00 0.00 0.00 77 1008.4
20260503233515 11 256 3.2 12.9 0.00 0.00 0.00 78 1008.4
20260503233015 11 204 3.2 9.7 0.00 0.00 0.00 78 1008.5
20260503232515 11 260 3.2 11.3 0.00 0.00 0.00 77 1008.5
20260503232015 11 234 4.8 11.3 0.00 0.00 0.00 78 1008.6
20260503231515 11 235 4.8 11.3 0.00 0.00 0.00 78 1008.7
20260503231015 11 254 4.8 11.3 0.00 0.00 0.00 78 1008.7
20260503230516 11 233 4.8 8.0 0.00 0.00 0.00 78 1008.8
20260503230015 11 235 3.2 12.9 0.00 0.00 0.00 78 1008.9
20260503225515 11 229 4.8 12.9 0.00 0.00 0.00 79 1008.8
20260503225035 11 217 4.8 11.3 0.00 0.00 0.00 79 1008.8
20260503224515 11 219 4.8 14.5 0.00 0.00 0.00 79 1008.9
20260503224035 11 234 4.8 17.7 0.00 0.00 0.00 78 1009.0
20260503223535 11 250 6.4 17.7 0.00 0.00 0.00 78 1009.1
20260503223015 11 239 4.8 16.1 0.00 0.00 0.00 78 1009.2
20260503222535 11 264 6.4 17.7 0.00 0.00 0.00 78 1009.2
20260503222015 11 274 6.4 17.7 0.00 0.00 0.00 77 1009.2
20260503221515 11 233 4.8 16.1 0.00 0.00 0.00 77 1009.3
20260503221037 11 272 8.0 17.7 0.00 0.00 0.00 76 1009.2
20260503220515 11 274 8.0 17.7 0.00 0.00 0.00 76 1009.3
20260503220015 11 263 6.4 16.1 0.00 0.00 0.00 75 1009.3
20260503215518 11 265 8.0 22.5 0.00 0.00 0.00 75 1009.3
20260503215015 11 264 8.0 22.5 0.00 0.00 0.00 75 1009.4
20260503214515 11 255 9.7 27.4 0.00 0.00 0.00 74 1009.3
20260503214015 11 257 14.5 27.4 0.00 0.00 0.00 73 1009.4
20260503213515 11 248 11.3 27.4 0.00 0.00 0.00 73 1009.4
20260503213035 11 255 8.0 20.9 0.00 0.00 0.00 74 1009.4
20260503212515 12 254 8.0 20.9 0.00 0.00 0.00 74 1009.3
20260503212015 12 267 9.7 17.7 0.00 0.00 0.00 74 1009.4
20260503211515 12 269 8.0 17.7 0.00 0.00 0.00 73 1009.4
20260503211035 12 267 6.4 20.9 0.00 0.00 0.00 72 1009.3
20260503210535 12 267 9.7 20.9 0.00 0.00 0.00 70 1009.3
20260503210015 12 275 9.7 27.4 0.00 0.00 0.00 69 1009.4
20260503205515 13 274 9.7 27.4 0.00 0.00 0.00 66 1009.2
20260503205015 13 280 12.9 35.4 0.00 0.00 0.00 63 1009.1
20260503204515 14 274 16.1 35.4 0.00 0.00 0.00 59 1009.1
20260503204015 14 289 11.3 33.8 0.00 0.00 0.00 54 1008.9
20260503203515 14 283 8.0 16.1 0.00 0.00 0.00 55 1008.7
20260503203015 14 277 6.4 24.1 0.00 0.00 0.00 55 1008.8
20260503202515 14 262 9.7 24.1 0.00 0.00 0.00 54 1008.7
20260503202015 15 257 11.3 25.7 0.00 0.00 0.00 54 1008.8
20260503201515 15 247 12.9 33.8 0.00 0.00 0.00 52 1008.8
20260503201015 15 237 14.5 33.8 0.00 0.00 0.00 51 1008.7
20260503200516 15 315 11.3 20.9 0.00 0.00 0.00 52 1008.6
20260503200015 15 326 6.4 22.5 0.00 0.00 0.00 53 1008.7
20260503195515 15 226 8.0 27.4 0.00 0.00 0.00 54 1008.8
20260503195015 15 247 11.3 27.4 0.00 0.00 0.00 52 1009.0
20260503194555 15 254 11.3 22.5 0.00 0.00 0.00 49 1008.9
20260503194036 15 235 11.3 22.5 0.00 0.00 0.00 49 1008.8
20260503193515 15 224 9.7 22.5 0.00 0.00 0.00 47 1008.8
20260503193015 15 227 9.7 19.3 0.00 0.00 0.00 48 1008.8
20260503192535 15 225 8.0 17.7 0.00 0.00 0.00 48 1008.7
20260503192055 15 216 9.7 19.3 0.00 0.00 0.00 48 1008.8
20260503191515 15 217 9.7 25.7 0.00 0.00 0.00 47 1008.9
20260503191015 15 219 9.7 25.7 0.00 0.00 0.00 49 1008.9
20260503190515 13 287 4.8 12.9 0.00 0.00 0.00 53 1008.8
20260503190015 13 0 1.6 11.3 0.00 0.00 0.00 61 1009.0
20260503185535 12 12 3.2 11.3 0.00 0.00 0.00 62 1009.1
20260503185016 12 83 1.6 4.8 0.00 0.00 0.00 60 1009.4
20260503184515 12 95 1.6 6.4 0.00 0.00 0.00 60 1009.4
20260503184015 12 105 3.2 9.7 0.00 0.00 0.00 60 1009.6
20260503183515 12 96 3.2 9.7 0.00 0.00 0.00 57 1009.6
20260503183015 12 83 3.2 8.0 0.00 0.00 0.00 56 1009.8
20260503182514 12 82 3.2 11.3 0.00 0.00 0.00 54 1009.8
20260503182014 13 103 3.2 12.9 0.00 0.00 0.00 52 1010.0
20260503181515 13 134 4.8 12.9 0.00 0.00 0.00 50 1010.1
20260503181015 13 77 3.2 9.7 0.00 0.00 0.00 50 1010.2
20260503180515 13 88 3.2 11.3 0.00 0.00 0.00 49 1010.3
20260503180015 13 130 3.2 17.7 0.00 0.00 0.00 49 1010.3
20260503175515 13 143 4.8 17.7 0.00 0.00 0.00 48 1010.5
20260503175014 13 131 6.4 14.5 0.00 0.00 0.00 47 1010.5
20260503174515 14 120 4.8 12.9 0.00 0.00 0.00 46 1010.6
20260503174035 13 120 3.2 12.9 0.00 0.00 0.00 48 1010.6
20260503173514 14 124 4.8 12.9 0.00 0.00 0.00 47 1010.8
20260503173015 14 120 4.8 12.9 0.00 0.00 0.00 46 1010.9
20260503172515 14 141 4.8 14.5 0.00 0.00 0.00 46 1011.0
20260503172015 14 133 4.8 14.5 0.00 0.00 0.00 45 1011.0
20260503171516 14 141 6.4 14.5 0.00 0.00 0.00 44 1011.1
20260503171037 14 161 4.8 14.5 0.00 0.00 0.00 44 1011.3
20260503170516 14 157 4.8 17.7 0.00 0.00 0.00 46 1011.4
20260503150517 11 193 3.2 9.7 0.00 0.00 0.00 49 1013.0
20260503131039 7 279 3.2 11.3 0.00 0.00 0.00 65 1013.8
20260503130516 6 273 4.8 12.9 0.00 0.00 0.00 65 1013.8
20260503110516 -1 251 0.0 1.6 0.00 0.00 0.00 84 1013.6
20260503081515 0 0.0 0.0 0.00 0.00 0.00 77 1014.3
20260503081035 0 0.0 0.0 0.00 0.00 0.00 76 1014.3
20260503080515 0 0.0 0.0 0.00 0.00 0.00 76 1014.3
20260503072515 0 0.0 0.0 0.00 0.00 0.00 74 1014.4
20260503072035 0 0.0 0.0 0.00 0.00 0.00 74 1014.5
20260503071516 0 0.0 0.0 0.00 0.00 0.00 74 1014.4
20260503071015 0 0.0 0.0 0.00 0.00 0.00 73 1014.5
20260503070515 0 0.0 1.6 0.00 0.00 0.00 73 1014.5
20260503055015 1 280 0.0 4.8 0.00 0.00 0.00 72 1014.9
20260503054515 1 279 1.6 4.8 0.00 0.00 0.00 72 1014.8
20260503054015 1 342 1.6 4.8 0.00 0.00 0.00 72 1014.8
20260503053515 1 312 1.6 3.2 0.00 0.00 0.00 72 1014.8
20260503053015 1 0.0 0.0 0.00 0.00 0.00 72 1014.8
20260503052515 1 0.0 0.0 0.00 0.00 0.00 72 1014.8
20260503052015 1 0.0 0.0 0.00 0.00 0.00 72 1014.9
20260503051515 1 0.0 0.0 0.00 0.00 0.00 72 1014.9
20260503051015 1 0.0 0.0 0.00 0.00 0.00 72 1014.9
20260503050515 1 0.0 0.0 0.00 0.00 0.00 72 1014.9
20260503050035 1 0.0 0.0 0.00 0.00 0.00 71 1014.9
20260503045515 1 0.0 0.0 0.00 0.00 0.00 71 1014.9
20260503045055 1 0.0 0.0 0.00 0.00 0.00 71 1014.9
20260503044515 1 0.0 0.0 0.00 0.00 0.00 70 1015.0
20260503044015 2 0.0 0.0 0.00 0.00 0.00 70 1015.1
20260503043535 2 0.0 0.0 0.00 0.00 0.00 70 1015.1
20260503043055 2 0.0 0.0 0.00 0.00 0.00 69 1015.1
20260503042515 2 0.0 0.0 0.00 0.00 0.00 69 1015.2
20260503042015 2 0.0 0.0 0.00 0.00 0.00 69 1015.2
20260503041515 2 0.0 0.0 0.00 0.00 0.00 68 1015.3
20260503041015 2 0.0 0.0 0.00 0.00 0.00 68 1015.3
20260503040515 2 0.0 0.0 0.00 0.00 0.00 68 1015.3
20260503040015 2 0.0 0.0 0.00 0.00 0.00 67 1015.2
20260503035516 2 0.0 0.0 0.00 0.00 0.00 67 1015.3
20260503035056 3 0.0 4.8 0.00 0.00 0.00 66 1015.3
20260503034516 3 0 1.6 6.4 0.00 0.00 0.00 66 1015.4
20260503034016 3 0 3.2 6.4 0.00 0.00 0.00 66 1015.4
20260503033516 3 0 1.6 4.8 0.00 0.00 0.00 66 1015.4
20260503033016 3 0 1.6 4.8 0.00 0.00 0.00 66 1015.4
20260503032517 3 0 0.0 3.2 0.00 0.00 0.00 67 1015.4
20260503032016 3 0 0.0 3.2 0.00 0.00 0.00 67 1015.4
20260503031516 3 0 1.6 4.8 0.00 0.00 0.00 66 1015.4
20260503031016 3 0 1.6 6.4 0.00 0.00 0.00 66 1015.3
20260503030515 3 0 1.6 6.4 0.00 0.00 0.00 66 1015.3
20260503030016 3 0 3.2 4.8 0.00 0.00 0.00 67 1015.4
20260503025516 3 0 1.6 6.4 0.00 0.00 0.00 67 1015.4
20260503025016 2 0 1.6 6.4 0.00 0.00 0.00 67 1015.5
20260503024516 2 0 1.6 4.8 0.00 0.00 0.00 68 1015.5
20260503024016 2 0 1.6 4.8 0.00 0.00 0.00 68 1015.6
20260503023515 2 0 1.6 4.8 0.00 0.00 0.00 68 1015.6
20260503023015 3 0.0 0.0 0.00 0.00 0.00 68 1015.7
20260503022536 3 0.0 0.0 0.00 0.00 0.00 68 1015.6
20260503022015 3 0.0 0.0 0.00 0.00 0.00 68 1015.7
20260503021536 3 0.0 0.0 0.00 0.00 0.00 67 1015.7
20260503021015 3 0.0 0.0 0.00 0.00 0.00 67 1015.6
20260503020516 3 0.0 0.0 0.00 0.00 0.00 67 1015.6
20260503020016 3 0.0 0.0 0.00 0.00 0.00 66 1015.5
20260503015515 4 0.0 0.0 0.00 0.00 0.00 66 1015.5
20260503015036 4 0.0 0.0 0.00 0.00 0.00 65 1015.5
20260503014515 4 0.0 1.6 0.00 0.00 0.00 65 1015.5
20260503014015 5 0 0.0 1.6 0.00 0.00 0.00 63 1015.5
20260503013515 5 0.0 0.0 0.00 0.00 0.00 62 1015.6
20260503013015 5 0.0 0.0 0.00 0.00 0.00 61 1015.6
20260503012515 5 0.0 0.0 0.00 0.00 0.00 60 1015.5
20260503012016 5 0.0 1.6 0.00 0.00 0.00 58 1015.5
20260503011515 6 0 0.0 1.6 0.00 0.00 0.00 57 1015.5
20260503011017 6 0 0.0 3.2 0.00 0.00 0.00 57 1015.5
20260503010515 6 0 0.0 4.8 0.00 0.00 0.00 56 1015.5
20260503010036 6 0 1.6 6.4 0.00 0.00 0.00 55 1015.5
20260503005515 6 0 1.6 6.4 0.00 0.00 0.00 54 1015.5
20260503005015 6 0 1.6 8.0 0.00 0.00 0.00 54 1015.4
20260503004515 6 0 1.6 8.0 0.00 0.00 0.00 54 1015.3
20260503004015 6 0 1.6 6.4 0.00 0.00 0.00 54 1015.3
20260503003516 6 0 1.6 6.4 0.00 0.00 0.00 55 1015.3
20260503003015 7 0 1.6 6.4 0.00 0.00 0.00 54 1015.3
20260503002516 7 359 3.2 6.4 0.00 0.00 0.00 54 1015.3
20260503002017 7 353 1.6 8.0 0.00 0.00 0.00 54 1015.3